Simultaneous Nadir Overpasses (SNOs) Predictions

Prediction of SNOs between AQUA and NPP Satellite Orbit:

Table of predicted SNOs for the next 14.0 days since TLE Epoch: 11/18/2023
Index Date (AQUA) Time (AQUA) Lat,Lon (AQUA) SZA (AQUA ) Date (NPP) Time (NPP) Lat,Lon (NPP) SZA (NPP ) Distance(km) Time Diff (sec)
1 11/18/2023 03:35:36 -80.97,-138.67 72.51 11/18/2023 03:34:55 -80.97,-138.67 72.49 0.06 41
2 11/18/2023 04:24:57 81.02, 29.71 107.40 11/18/2023 04:25:37 81.01, 29.70 107.38 0.42 40
3 11/20/2023 17:20:02 80.98,-164.56 108.07 11/20/2023 17:19:34 80.98,-164.58 108.10 0.34 28
4 11/20/2023 18:09:25 -81.01, 3.52 71.98 11/20/2023 18:10:17 -81.01, 3.49 72.01 0.64 52
5 11/23/2023 07:04:29 -80.98, 169.36 71.36 11/23/2023 07:04:14 -80.98, 169.19 71.32 2.96 15
6 11/23/2023 07:53:50 81.02, -22.33 108.56 11/23/2023 07:54:56 81.02, -22.48 108.54 2.77 66
7 11/25/2023 20:48:53 81.00, 143.55 109.15 11/25/2023 20:48:52 81.00, 143.51 109.15 0.68 1
8 11/28/2023 09:43:54 80.98, -50.49 109.68 11/28/2023 09:42:47 80.97, -50.53 109.73 0.87 67
9 11/28/2023 10:33:17 -81.01, 117.67 70.39 11/28/2023 10:33:30 -81.01, 117.60 70.39 1.11 13
10 11/30/2023 23:28:18 -80.99, -76.28 69.91 11/30/2023 23:27:25 -81.00, -76.10 69.90 3.17 53



Historial Predications of SNOs between AQUA and NPP
